Location: San Bernardino
(34.1083°N, 117.2898°W)
Time: 14:48:54
(UTC+00:00)

Cosmos 1674 - Pass Details

Date: 13 April 2024
Orbit: 440 x 455 km, 82.5° (Epoch: 19 May)

Event Time Altitude Azimuth Distance (km) Brightness Sun altitude
Rises 12:43:13 0° 200° (SSW) 2,418 5.7 -8.2°
Reaches altitude 10° 12:45:20 10° 208° (SSW) 1,551 4.7 -7.8°
Maximum altitude 12:48:31 39° 279° (W) 678 2.9 -7.1°
Drops below altitude 10° 12:51:41 10° 350° (N) 1,545 5.2 -6.5°
Sets 12:53:53 0° 358° (N) 2,434 6.3 -6.1°
